User: anonymous   Login
Location: Unspecified
(0.0000°N, 0.0000°E)
Time: 08:52:59
(UTC+00:00)
Language:

Metsat - Orbit

View from above orbital plane
View from above orbital plane
View from above satellite
View from above satellite

Ground track
Ground track

The orbit data is extracted from the following two-line orbital elements,

1 26382U 00032A   19345.57036872 -.00000353  00000-0  00000+0 0  9997
2 26382  10.9506  33.1033 0005690 291.6956  77.9392  1.00085544 71197
Epoch (UTC): 11 December 2019 13:41:19
Eccentricity: 0.0005690
inclination: 10.9506°
perigee height: 35814 km
apogee height: 35862 km
right ascension of ascending node: 33.1033°
argument of perigee: 291.6956°
revolutions per day: 1.00085544
mean anomaly at epoch: 77.9392°
orbit number at epoch: 7119

The dashed part of the orbit path shows where the satellite is in the earth's shadow,  

DLR